TimeEDT,TemperatureF,Dew PointF,Humidity,Sea Level PressureIn,VisibilityMPH,Wind Direction,Wind SpeedMPH,Gust SpeedMPH,PrecipitationIn,Events,Conditions,WindDirDegrees,DateUTC
12:54 AM,64.0,54.0,70,30.22,-9999.0,North,-9999.0,-,N/A,,Unknown,0,2013-09-29 04:54:00
1:54 AM,64.0,54.0,70,30.22,-9999.0,North,-9999.0,-,N/A,,Unknown,0,2013-09-29 05:54:00
2:54 AM,63.0,54.0,72,30.20,-9999.0,North,-9999.0,-,N/A,,Unknown,0,2013-09-29 06:54:00
3:54 AM,62.1,53.1,72,30.19,-9999.0,North,-9999.0,-,N/A,,Unknown,0,2013-09-29 07:54:00
4:54 AM,61.0,52.0,72,30.18,-9999.0,North,-9999.0,-,N/A,,Unknown,0,2013-09-29 08:54:00
5:54 AM,62.1,53.1,72,30.19,-9999.0,North,-9999.0,-,N/A,,Unknown,0,2013-09-29 09:54:00
6:54 AM,61.0,52.0,72,30.19,-9999.0,North,-9999.0,-,N/A,,Unknown,0,2013-09-29 10:54:00
7:54 AM,61.0,52.0,72,30.19,-9999.0,North,-9999.0,-,N/A,,Unknown,0,2013-09-29 11:54:00
8:54 AM,63.0,53.1,70,30.19,-9999.0,North,-9999.0,-,N/A,,Unknown,0,2013-09-29 12:54:00
9:54 AM,66.9,55.9,68,30.19,-9999.0,North,-9999.0,-,N/A,,Unknown,0,2013-09-29 13:54:00
10:54 AM,69.1,54.0,58,30.19,-9999.0,North,-9999.0,-,N/A,,Unknown,0,2013-09-29 14:54:00
11:54 AM,73.0,55.0,53,30.17,-9999.0,North,-9999.0,-,N/A,,Unknown,0,2013-09-29 15:54:00
12:54 PM,72.0,52.0,49,30.15,-9999.0,North,-9999.0,-,N/A,,Unknown,0,2013-09-29 16:54:00
1:54 PM,75.9,52.0,43,30.13,-9999.0,North,-9999.0,-,N/A,,Unknown,0,2013-09-29 17:54:00
2:54 PM,75.9,51.1,42,30.11,-9999.0,North,-9999.0,-,N/A,,Unknown,0,2013-09-29 18:54:00
3:54 PM,75.0,52.0,44,30.09,-9999.0,North,-9999.0,-,N/A,,Unknown,0,2013-09-29 19:54:00
4:54 PM,73.9,50.0,43,30.08,-9999.0,North,-9999.0,-,N/A,,Unknown,0,2013-09-29 20:54:00
5:54 PM,73.0,51.1,46,30.08,-9999.0,North,-9999.0,-,N/A,,Unknown,0,2013-09-29 21:54:00
6:54 PM,72.0,51.1,48,30.09,-9999.0,North,-9999.0,-,N/A,,Unknown,0,2013-09-29 22:54:00
7:54 PM,71.1,51.1,49,30.09,-9999.0,North,-9999.0,-,N/A,,Unknown,0,2013-09-29 23:54:00
8:54 PM,70.0,52.0,53,30.09,-9999.0,North,-9999.0,-,N/A,,Unknown,0,2013-09-30 00:54:00
9:54 PM,68.0,55.0,63,30.08,-9999.0,North,-9999.0,-,N/A,,Unknown,0,2013-09-30 01:54:00
10:54 PM,66.9,54.0,63,30.09,-9999.0,North,-9999.0,-,N/A,,Unknown,0,2013-09-30 02:54:00
11:54 PM,64.9,54.0,68,30.10,-9999.0,North,-9999.0,-,N/A,,Unknown,0,2013-09-30 03:54:00